Погода в Белом

Россия / Тверская область     55°50′01″N   32°56′19″E
темп.,
°C
ветер,
м/с
пор.,
м/с
влажн.,
%
обл.,
%
осадки,
мм/ч
давл.,
гПа
погр.,
м
26 июля, пн
пн2600:00+17ююв24680 0.0 1021102
03:00+13ю22830 0.0 102233
06:00+14ю22835 0.0 102243
09:00+22ююз11562 0.0 1022382
12:00+26юз13420 0.0 10211673
15:00+26юз1341100 0.0 10201896
18:00+26юв234664 0.0 1020363
21:00+21юв2660100 0.0 1020121
27 июля, вт
вт2700:00+19юз237052 0.0 102150
03:00+18ю227345 0.0 102143
06:00+17ююз127826 0.0 102133
09:00+23ю22565 0.0 1021402
12:00+28ююз23405 0.0 10202098
15:00+27ююв234497 0.0 10191489
18:00+25ююв135387 0.0 1018430
21:00+20юв247564 0.0 101768
28 июля, ср
ср2800:00+18юв257699 0.0 101786
03:00+17ююв397883 0.0 1016194
06:00+17юв3983100 0.0 1014232
09:00+18ююв31083100 0.2 1013414
12:00+18ююв499696 2.8 1012517
15:00+19ююв3897100 4.4 1010485
18:00+21зюз3894100 1.8 1009718
21:00+18зюз22950 2.8 100915
29 июля, чт
чт2900:00+18ююз269612 0.0 1009133
03:00+16з399510 0.0 1009171
06:00+15зюз27965 0.0 1009152
09:00+21з36739 0.0 1009420
12:00+26з474697 0.0 10081696
15:00+27зюз364891 0.0 10071882
18:00+19всв129489 4.3 100755
21:00+17юз229670 6.8 100723
30 июля, пт
пт3000:00+17зюз259716 0.7 100799
03:00+15з29970 0.7 1008221
06:00+14з29971 0.0 1009225
09:00+18з49763 0.0 1009610
12:00+24з58468 0.0 10092002
15:00+26з5837100 0.0 10082501
18:00+25зюз364683 0.0 10071377
21:00+21ююз31061100 0.0 1007335